[[{"header":{"parameterUnit":"m.s-1","parameterCategory":1,"la1":30.2992,"la2":30.254,"lo1":-89.0895,"lo2":-89.0443,"dy":0.0025,"dx":0.0025,"nx":19,"ny":19,"refTime":"2026-05-12T21:00:00:Z","depth":0,"parameterNumber":2,"parameterNumberName":"U-component_of_WINDS"},"data":[0,0,0,1.7771,1.7773,1.7837,1.7837,1.7926,1.7927,0,0,0,0,0,0,0,0,0,0,0,1.7756,1.7757,1.7771,1.7773,1.7837,1.7837,1.7926,1.7927,0,0,0,0,0,0,0,0,0,0,0,1.7756,1.7757,1.7758,1.7773,1.7837,1.7837,1.7926,1.7875,0,0,0,0,0,0,0,0,0,0,1.7812,1.7801,1.7757,1.7758,1.7774,1.7837,1.7837,1.7873,1.7878,1.79,0,1.792,0,1.7925,1.7934,1.7934,0,0,0,1.777,1.7797,1.7811,1.7758,1.7774,1.7837,1.7807,1.7876,1.7882,1.7908,1.7922,1.7925,1.7927,1.7934,1.7935,1.8072,1.8072,0,0,1.7767,1.777,1.7806,1.7815,1.7805,1.7805,1.7809,1.7879,1.7895,1.7922,1.7927,1.7928,1.7935,1.7935,1.8071,1.8072,0,0,0,1.7758,1.7768,1.778,1.7811,1.7822,1.7807,1.7812,1.7892,1.7895,1.7928,1.7929,1.7935,1.7936,1.807,1.8071,1.8114,0,0,0,1.7756,1.7763,1.7778,1.7781,1.7821,1.7858,1.7823,1.789,1.7898,1.7929,1.7935,1.7937,1.8069,1.8071,1.8111,1.8134,0,0,0,1.7751,1.7762,1.7773,1.7781,1.7809,1.7857,1.7864,1.7892,1.7899,1.7934,1.7938,1.8069,1.807,1.8108,1.8129,1.8172,0,0,0,1.7746,1.7808,1.7773,1.7844,1.7808,1.7882,1.7864,1.7918,1.7953,1.7936,1.8069,1.8071,1.8107,1.8126,1.8169,1.8209,1.8226,0,0,1.7827,1.7818,1.786,1.783,1.7912,1.7872,1.796,1.7988,1.7988,1.8044,1.8047,1.8112,1.8129,1.8171,1.8317,1.8331,0,0,0,1.7886,1.7916,1.7937,1.7971,1.7994,1.8017,1.8031,1.8042,1.809,1.8017,1.8138,1.8148,1.8173,1.8192,1.8204,1.8225,1.808,1.808,1.8079,1.8005,1.8003,1.8072,1.8078,1.8111,1.8126,1.8153,1.817,1.8156,1.8185,1.8202,1.8291,1.8313,1.8322,1.8345,1.8222,1.8222,1.8223,1.8223,1.8125,1.8167,1.815,1.8211,1.8208,1.8259,1.8277,1.8266,1.8314,1.8277,1.8299,1.8261,1.8337,1.8357,1.8226,1.8225,1.8225,1.8225,1.8224,1.8203,1.8223,1.8236,1.8286,1.8324,1.8328,1.8375,1.837,1.8366,1.8388,1.8406,1.8406,1.8405,1.8397,1.8397,1.8397,1.8398,1.8398,1.8398,1.828,1.8293,1.8333,1.8365,1.8387,1.8416,1.8433,1.8454,1.8477,1.847,1.8471,1.8456,1.8344,1.8317,1.8403,1.8402,1.8401,1.8401,1.8401,1.8404,1.8375,1.8438,1.846,1.8498,1.8538,1.8532,1.8577,1.8594,1.8618,1.8599,1.8517,1.8508,1.8498,1.8476,1.8598,1.8598,1.8598,1.8598,1.8471,1.8466,1.853,1.8566,1.8601,1.8603,1.8675,1.869,1.87,1.8711,1.8693,1.8662,1.8653,1.865,1.8637,1.8616,1.8771,1.8771,1.8772,1.8548,1.8546,1.8608,1.8619,1.8648,1.8675,1.8743,1.8786,1.8792,1.8779,1.872,1.8713,1.8663,1.8647,1.8633,1.8614,1.8575,0,0]},{"header":{"parameterUnit":"m.s-1","parameterCategory":1,"la1":30.2992,"la2":30.254,"lo1":-89.0895,"lo2":-89.0443,"dy":0.0025,"dx":0.0025,"nx":19,"ny":19,"refTime":"2026-05-12T21:00:00:Z","depth":0,"parameterNumber":3,"parameterNumberName":"V-component_of_WINDS"},"data":[0,0,0,-1.8929,-1.8931,-1.9047,-1.9047,-1.9191,-1.9192,0,0,0,0,0,0,0,0,0,0,0,-1.8893,-1.8893,-1.8929,-1.8932,-1.9047,-1.9047,-1.9191,-1.9192,0,0,0,0,0,0,0,0,0,0,0,-1.8892,-1.8893,-1.8894,-1.8932,-1.9047,-1.9047,-1.9191,-1.9105,0,0,0,0,0,0,0,0,0,0,-1.8994,-1.8958,-1.8893,-1.8894,-1.8933,-1.9046,-1.9047,-1.9101,-1.911,-1.9137,0,-1.9161,0,-1.9179,-1.9202,-1.9202,0,0,0,-1.8933,-1.895,-1.8983,-1.8895,-1.8934,-1.9046,-1.8995,-1.9106,-1.9117,-1.915,-1.9163,-1.9168,-1.9181,-1.9203,-1.9203,-1.9355,-1.9355,0,0,-1.8927,-1.8912,-1.8976,-1.899,-1.8972,-1.8991,-1.8999,-1.9113,-1.9126,-1.9163,-1.9172,-1.9184,-1.9204,-1.9205,-1.9354,-1.9355,0,0,0,-1.8908,-1.8908,-1.8938,-1.8984,-1.9005,-1.8995,-1.9003,-1.9121,-1.9132,-1.9173,-1.9185,-1.9204,-1.9206,-1.9353,-1.9354,-1.9371,0,0,0,-1.8904,-1.8896,-1.8935,-1.8927,-1.9003,-1.9064,-1.9009,-1.9124,-1.9137,-1.9185,-1.9204,-1.9207,-1.9353,-1.9354,-1.9369,-1.9381,0,0,0,-1.8886,-1.8894,-1.891,-1.8926,-1.8975,-1.9063,-1.9081,-1.9127,-1.9145,-1.9202,-1.9208,-1.9352,-1.9354,-1.9367,-1.9378,-1.9417,0,0,0,-1.8862,-1.8923,-1.891,-1.8983,-1.8974,-1.9072,-1.908,-1.9154,-1.9205,-1.9205,-1.9353,-1.9354,-1.9367,-1.9377,-1.9415,-1.9446,-1.9458,0,0,-1.8931,-1.8931,-1.8975,-1.8966,-1.9063,-1.9056,-1.9155,-1.9216,-1.9235,-1.9314,-1.9318,-1.937,-1.9378,-1.9416,-1.9529,-1.9538,0,0,0,-1.8991,-1.9022,-1.9051,-1.91,-1.9148,-1.919,-1.9238,-1.9261,-1.9328,-1.9272,-1.9394,-1.94,-1.9423,-1.9439,-1.9446,-1.9467,-1.9361,-1.9361,-1.936,-1.9066,-1.9087,-1.9161,-1.9197,-1.9244,-1.9293,-1.9333,-1.9372,-1.9379,-1.9408,-1.9431,-1.9497,-1.9515,-1.9521,-1.9542,-1.945,-1.945,-1.945,-1.945,-1.9168,-1.9215,-1.9225,-1.93,-1.9322,-1.9386,-1.9436,-1.9439,-1.9502,-1.9481,-1.9502,-1.9478,-1.953,-1.955,-1.9451,-1.9451,-1.9451,-1.9451,-1.9451,-1.9219,-1.9246,-1.9273,-1.9345,-1.9399,-1.9433,-1.9493,-1.9511,-1.9529,-1.955,-1.9577,-1.9577,-1.9579,-1.9561,-1.9562,-1.9562,-1.9562,-1.9562,-1.9562,-1.9262,-1.9291,-1.9339,-1.9396,-1.943,-1.9477,-1.9527,-1.9561,-1.9604,-1.9612,-1.9613,-1.9617,-1.9531,-1.9509,-1.9566,-1.9565,-1.9565,-1.9565,-1.9564,-1.9357,-1.9338,-1.9412,-1.9446,-1.9515,-1.9567,-1.959,-1.9658,-1.9689,-1.9718,-1.9719,-1.9652,-1.9653,-1.9647,-1.9629,-1.9714,-1.9714,-1.9714,-1.9714,-1.94,-1.9402,-1.9483,-1.9536,-1.959,-1.9618,-1.9702,-1.9742,-1.9781,-1.9801,-1.9792,-1.9769,-1.9762,-1.9768,-1.9759,-1.9743,-1.9854,-1.9854,-1.9854,-1.946,-1.9468,-1.9536,-1.9573,-1.9628,-1.9676,-1.9755,-1.9816,-1.9856,-1.9861,-1.9818,-1.9812,-1.9776,-1.9763,-1.9766,-1.9752,-1.9722,0,0]}]]